#timestamp,LO_Frequency,Hit,StdDev 
1595314815.6,286047002.4,N
1595314835.4,286047001.8,N
1595314855.2,286047002.7,N
1595314875.1,286047002.5,N
1595314876.0,286047002.5,N
1595314895.8,286047002.4,N
1595314915.7,286047002.3,N
1595314935.5,286047001.8,N
1595314955.3,286047002.1,N
1595314975.2,286047002.8,N
1595314995.0,286047001.6,N
1595314995.9,286047001.6,N
1595315015.8,286046999.7,N
1595315035.6,286047001.0,N
1595315055.4,286046999.7,N
1595315075.3,286047000.2,N
1595315095.1,286047002.4,N
1595315115.8,286046999.8,N
1595315135.7,286047002.3,N
1595315155.5,286046999.8,N
1595315175.4,286047002.0,N
1595315195.2,286047002.0,N
1595315215.0,286047001.3,N
1595315215.9,286047001.3,N
1595315235.8,286047002.0,N
1595315255.6,286047001.5,N
1595315275.4,286047002.0,N
1595315295.3,286047002.6,N
1595315315.1,286047002.6,N
1595315335.9,286047002.6,N
1595315355.7,286047001.8,N
1595315375.5,286047001.7,N
1595315395.4,286047003.0,Y
1595315415.2,286046999.8,P
1595315435.1,286047002.4,N
1595315436.0,286047002.4,N
1595315455.8,286047002.4,N
1595315475.6,286046999.8,N
1595315495.5,286047002.3,N
1595315515.3,286047001.4,N
1595315535.2,286047001.5,N
1595315555.9,286047002.5,N
1595315575.7,286047000.1,N
1595315595.6,286047000.4,N
1595315615.4,286047000.8,N
1595315635.2,286047001.2,N
1595315655.1,286046999.4,N
1595315675.8,286046999.5,N
1595315695.7,286046998.6,N
1595315715.5,286047001.0,N
1595315735.4,286046998.6,N
1595315755.2,286047000.9,N
1595315775.0,286047002.4,N
1595315775.9,286047002.4,N
1595315795.8,286047000.2,N
1595315815.6,286047001.1,N
1595315835.4,286047000.7,N
1595315855.3,286046998.5,N
1595315875.1,286046998.3,N
1595315895.9,286046998.3,N
1595315915.7,286047001.0,N
1595315935.5,286047000.7,N
1595315955.4,286047001.2,N
1595315975.2,286047002.3,N
1595315995.1,286047000.3,N
1595315996.0,286047000.3,N
1595316015.8,286047000.6,N
1595316035.6,286046999.6,N
1595316055.5,286046996.7,N
1595316075.3,286046996.6,N
1595316095.2,286046998.4,N
1595316115.9,286046998.6,N
1595316135.7,286046996.6,N
1595316155.6,286046997.8,N
1595316175.4,286046999.6,N
1595316195.2,286047000.8,N
1595316215.1,286046996.5,N
1595316216.0,286046996.5,N
1595316235.8,286046996.8,N
1595316255.7,286046996.6,N
1595316275.5,286046999.4,N
1595316295.3,286046998.8,N
1595316315.2,286046999.3,N
1595316335.0,286046996.5,N
1595316335.9,286046996.5,N
1595316355.8,286046996.5,N
1595316375.6,286046999.6,N
1595316395.4,286046999.4,N
1595316415.3,286046999.1,N
1595316435.1,286046996.7,N
1595316455.8,286046997.1,N
1595316475.7,286046997.8,N
1595316495.5,286046996.7,N
1595316515.4,286046997.5,N
1595316535.2,286046997.8,N
1595316555.0,286046997.6,N
1595316555.9,286046997.6,N
1595316575.8,286046995.2,Y
1595316595.6,286046999.1,P
1595316615.5,286046998.8,N
1595316635.3,286046999.4,N
1595316655.1,286046996.7,Y
1595316675.9,286046998.9,P
1595316695.7,286046999.1,P
1595316715.6,286046998.6,P
1595316735.4,286046998.6,Y
1595316755.2,286047001.2,P
1595316775.1,286046998.1,N
1595316776.0,286046998.1,N
1595316795.8,286046998.2,N
1595316815.7,286047000.3,N
1595316835.7,286047000.8,N
1595316855.5,286047000.8,N
1595316875.4,286047001.2,N
1595316895.2,286047001.2,N
1595316915.1,286047000.8,N
1595316916.0,286047000.8,N
1595316935.8,286047000.6,N
1595316955.6,286047000.5,N
1595316975.5,286047000.0,N
1595316995.3,286046999.9,N
1595317015.2,286047000.6,N
1595317035.9,286047000.0,N
1595317055.7,286047000.2,N
1595317075.6,286046998.1,N
1595317095.4,286047001.0,N
1595317115.3,286046999.9,N
1595317135.1,286046998.1,N
1595317136.0,286046998.1,N
1595317155.8,286046998.2,N
1595317175.7,286046998.2,N
1595317195.5,286046998.5,N
1595317215.4,286047000.7,N
1595317235.2,286047000.7,N
1595317255.0,286047000.8,N
1595317255.9,286047000.8,N
1595317275.8,286046998.1,N
1595317295.6,286046998.5,N
1595317315.4,286046998.6,N
1595317335.3,286046998.1,N
1595317355.1,286046998.3,N
1595317375.9,286047000.9,N
1595317395.7,286047001.2,N
1595317415.5,286047000.4,N
1595317435.4,286047000.0,N
1595317455.2,286047000.1,N
1595317475.1,286047000.9,N
1595317476.0,286047000.9,N
1595317495.8,286047000.0,N
1595317515.6,286047000.7,N
1595317535.5,286046999.8,N
1595317555.3,286047000.3,N
1595317575.2,286047002.2,N
1595317595.9,286047002.7,N
1595317615.7,286047000.7,N
1595317635.6,286047001.1,N
1595317655.4,286047000.1,N
1595317675.2,286047002.1,N
1595317695.1,286047002.4,N
1595317696.0,286047002.4,N
1595317715.8,286047002.4,N
1595317735.7,286047002.5,N
1595317755.5,286047002.3,N
1595317775.3,286046999.7,N
1595317795.2,286047000.9,N
1595317815.0,286047000.0,N
1595317815.9,286047000.0,N
1595317835.8,286047000.7,N
1595317855.6,286046998.3,N
1595317875.4,286047000.6,N
1595317895.3,286046999.7,N
1595317915.1,286047001.8,N
1595317935.8,286047001.7,N
1595317955.7,286047002.3,N
1595317975.5,286047002.5,N
1595317995.4,286047002.5,N
1595318015.2,286047002.5,N
1595318035.1,286047002.1,N
1595318036.0,286047002.1,N
1595318055.8,286047002.0,N
1595318075.6,286047001.9,N
1595318095.5,286047001.7,N
1595318115.3,286047004.4,Y
1595318135.2,286046999.8,P
1595318155.9,286047000.1,N
1595318175.7,286047000.1,N
1595318195.6,286047000.0,N
1595318215.4,286047000.0,N
1595318235.2,286047000.6,N
1595318255.1,286047000.6,N
1595318256.0,286047000.6,N
1595318275.8,286047000.1,N
1595318295.7,286046998.2,Y
1595318315.5,286047000.3,P
1595318335.3,286047000.0,N
1595318355.2,286046999.7,N
1595318375.0,286047000.5,N
1595318375.9,286047000.5,N
1595318395.8,286047001.1,Y
